Regional Weather Roundup
Issued by NWS

Home | Current Version | Previous Version | Text Only | Print | Product List | Glossary Off
Versions: 1 2 3 4 5 6 7 8 9 10 11 12 13 14 15 16 17 18 19 20 21 22 23 24 25 26 27 28 29 30 31 32 33 34 35 36 37 38 39 40 41 42 43 44 45 46 47 48 49 50

924
ASUS45 KABQ 260001
RWRNM
NEW MEXICO REGIONAL WEATHER ROUNDUP
NATIONAL WEATHER SERVICE ALBUQUERQUE NM
600 PM MDT TUE JUL 25 2017

NOTE: "FAIR" MEANS FEW OR NO CLOUDS BELOW 12,000 FEET AGL WITH NO
       SIGNIFICANT WEATHER OR OBSTRUCTIONS TO VISION.

      THIS PRODUCT IS RELEASED AS TWO VERSIONS.  ONE VERSION NEAR
      THE TOP OF THE HOUR CONTAINING PRELIMINARY DATA FROM ALBUQUERQUE
      AND OTHER STATIONS.  A FINAL VERSION WITH ADDITIONAL DATA IS
      ISSUED ABOUT 10 MINUTES AFTER THE HOUR.

NMZ501-503-504-510>518-260100-
NORTHWEST PLATEAU/NORTHCENTRAL MOUNTAINS

CITY           SKY/WX    TMP DP  RH WIND       PRES   REMARKS
FARMINGTON     PTSUNNY   81  56  42 N8        30.14S
6HR MIN TEMP:  76; 6HR MAX TEMP:  86; 6HR PCP: TRACE;

LOS ALAMOS     CLOUDY    68  57  69 NW8       30.31S
SANTA FE       CLOUDY    80  51  36 W12       30.24R
6HR MIN TEMP:  80; 6HR MAX TEMP:  90;

TAOS           FAIR      73  50  43 W7        30.30F
ANGEL FIRE     FAIR      69  54  57 W8        30.39F

$$
NMZ402-403-502-505>509-260100-
WESTCENTRAL MOUNTAINS/SOUTHWEST MOUNTAINS

CITY           SKY/WX    TMP DP  RH WIND       PRES   REMARKS
GALLUP         FAIR      81  54  39 W16       30.25S
6HR MIN TEMP:  74; 6HR MAX TEMP:  83;

GRANTS         RAIN      75  56  50 SW16G24   30.28R
SILVER CITY    FAIR      86  54  33 SW6       30.18S

$$
NMZ407-409-411-412-260100-
SOUTHERN DESERTS

CITY           SKY/WX    TMP DP  RH WIND       PRES   REMARKS
DEMING         FAIR      90  57  32 SW7       30.08F
6HR MIN TEMP:  84; 6HR MAX TEMP:  93;

LAS CRUCES     FAIR      88  58  36 E8        30.10F
HOLLOMAN AFB   FAIR      95  55  26 S12G17    30.07F
ALAMOGORDO     FAIR      91  54  27 S8        30.08S
T OR C         FAIR      90  31  12 S10       30.11F
6HR MIN TEMP:  81; 6HR MAX TEMP:  91; 6HR PCP: TRACE;


$$
NMZ519>523-260100-
CENTRAL VALLEYS/CENTRAL HIGHLANDS

CITY           SKY/WX    TMP DP  RH WIND       PRES   REMARKS
ALBUQUERQUE    PTSUNNY   87  56  34 W9        30.16F
6HR MIN TEMP:  82; 6HR MAX TEMP:  90;

DOUBLE EAGLE   PTSUNNY   82  59  44 SW8       30.20F
MORIARTY ARPT  CLOUDY    79  59  50 W13       30.22S
6HR MIN TEMP:  72; 6HR MAX TEMP:  90; 6HR PCP:  0.04;

CLINES CORNERS FAIR      82  49  31 SW18      30.28S
6HR MIN TEMP:  79; 6HR MAX TEMP:  88;

BELEN          NOT AVBL
SOCORRO        FAIR      86  56  36 SE6       30.12F
6HR MIN TEMP:  72; 6HR MAX TEMP:  87;


$$
NMZ524>526-539-540-260100-
SOUTHCENTRAL MOUNTAINS

CITY           SKY/WX    TMP DP  RH WIND       PRES   REMARKS
RUIDOSO        CLOUDY    79  54  41 N5        30.30S

$$
NMZ527>531-260100-
NORTHEAST HIGHLANDS/NORTHEAST PLAINS

CITY           SKY/WX    TMP DP  RH WIND       PRES   REMARKS
LAS VEGAS      FAIR      84  50  30 SW14      30.22F
6HR MIN TEMP:  79; 6HR MAX TEMP:  86;

RATON          PTSUNNY   84  53  34 SW14      30.16S
6HR MIN TEMP:  83; 6HR MAX TEMP:  92;

CLAYTON        FAIR      90  55  30 S21G31    30.08R
6HR MIN TEMP:  90; 6HR MAX TEMP:  97;


$$
NMZ532>537-260100-
EASTCENTRAL PLAINS

CITY           SKY/WX    TMP DP  RH WIND       PRES   REMARKS
SANTA ROSA     FAIR      92  54  27 S15G22    30.07R
TUCUMCARI      FAIR      96  57  27 SW9       30.00F HX  95
6HR MIN TEMP:  94; 6HR MAX TEMP: 100;

CANNON AFB     FAIR      91  56  30 S18G26    30.10R
6HR MIN TEMP:  81; 6HR MAX TEMP:  95; 6HR PCP:  0.12;

CLOVIS AIRPORT FAIR      91  58  32 S21G26    30.09S

$$
NMZ028-029-538-260100-
SOUTHEAST PLAINS

CITY           SKY/WX    TMP DP  RH WIND       PRES   REMARKS
ROSWELL        FAIR      98  52  21 S21G28    30.02R HX  95
6HR MIN TEMP:  93; 6HR MAX TEMP: 100;

ARTESIA        FAIR      97  57  26 S14G23    30.02F HX  95
CARLSBAD       FAIR      94  60  32 S13       30.01S
6HR MIN TEMP:  77; 6HR MAX TEMP:  96; 6HR PCP:  0.06;

HOBBS          MOSUNNY   93  52  24 SE17G23   30.07S


$$




USA.gov is the U.S. government's official web portal to all federal, state and local government web resources and services.